User: anonymous   Login
Location: Unspecified
(0.0000°N, 0.0000°E)
Time: 00:40:27
(UTC+00:00)
Language:

Tiros 5 - Orbit

View from above orbital plane
View from above orbital plane
View from above satellite
View from above satellite

Ground track
Ground track

The orbit data is extracted from the following two-line orbital elements,

1   309U 62025A   18265.62581922 -.00000147 +00000-0 +10906-4 0  9997
2   309 058.0906 117.5898 0192807 349.5615 010.1433 14.56761055969962
Epoch (UTC): 22 September 2018 15:01:10
Eccentricity: 0.0192807
inclination: 58.0906°
perigee height: 567 km
apogee height: 840 km
right ascension of ascending node: 117.5898°
argument of perigee: 349.5615°
revolutions per day: 14.56761055
mean anomaly at epoch: 10.1433°
orbit number at epoch: 96996

The dashed part of the orbit path shows where the satellite is in the earth's shadow,  

DLR